SKYSAT-C9

Last updated on Wed Sep 09 2026 00:02:46 GMT+0000 (Coordinated Universal Time)

1 42989U 17068C 26251.34045007 .00013815 00000+0 31099-3 0 9995 2 42989 97.4527 30.8968 0007678 186.7390 173.3756 15.43384020495576
UTC large
Height (km)
Speed (km/s)
/
Latitude / Longitude
Inclination (degrees)
Orbital Period (minutes)
Azimuth
Elevation
Range (km)
Doppler Factor

Next 0 passes for location: London (51.5072 / 0.1276)

No passes found over London.
SKYSAT-C9